CAPE
0 9 12 6 26 26 18 27 25 0 0 221 1217 1349 1468 1442 1534 1613 1713 1707 1606 1636 1658 1619 1578 1411 1338 1358 1171 841 887 1253 1136 904 828 917 841 627 417 309 141 114 90 49
1 12 2 0 0 0 52 37 38 7 25 193 936 1369 1365 1350 1250 1359 1412 1288 1217 1195 1408 1484 1498 1476 1502 1518 1359 1243 1194 1130 925 878 771 717 526 424 346 273 259 411 568 474
14 31 30 12 4 35 56 69 78 82 433 394 759 1130 1121 1134 1017 1483 1383 1372 1270 1235 1451 1549 1581 1543 1303 1284 1157 1067 1021 990 656 549 287 121 82 60 9 19 46 100 100 140
31 60 28 34 26 21 40 74 81 96 151 529 828 824 730 847 948 1478 1379 1378 1367 1299 1276 1099 1003 1010 1057 1119 1078 765 506 337 199 117 1 3 3 1 0 0 0 0 0 0
48 54 30 28 50 44 42 23 110 151 437 651 699 634 948 1063 1147 1326 1509 1647 1439 1342 1275 1163 1096 1049 970 840 579 348 111 3 1 0 0 0 0 0 0 0 0 0 0 0
57 34 20 47 73 88 74 111 139 167 583 727 791 756 1009 1526 1501 1446 1695 1602 1401 1303 1168 1070 952 886 805 634 355 82 1 0 0 0 0 0 0 0 0 0 0 0 0 0
19 36 191 52 13 174 174 119 5 7 349 730 740 1296 1428 1701 1787 1651 1504 1366 1135 1017 989 829 614 596 569 228 25 0 0 0 0 0 0 0 0 0 0 0 0 0 0 0
119 105 203 67 52 127 159 91 78 148 297 564 1664 1662 1540 1680 1545 1419 1245 860 839 561 234 27 12 48 10 0 0 0 0 0 0 0 0 0 0 0 0 0 0 0 0 0
404 336 2 0 336 384 110 97 113 171 260 1415 1646 1572 1454 1415 1220 975 741 517 308 45 0 0 0 0 0 0 0 0 0 0 0 0 0 0 0 0 0 0 0 0 0 0
312 216 231 392 486 355 331 244 167 102 381 1152 1330 1426 1331 1106 861 665 351 86 0 0 0 0 0 0 0 0 0 0 0 0 0 0 0 0 0 0 0 0 0 0 0 0
206 396 695 501 480 398 552 503 198 571 866 1167 1363 1284 1111 859 606 295 69 0 0 0 0 0 0 0 0 0 0 0 0 0 0 0 0 0 0 0 0 0 0 0 0 0
391 429 607 550 599 520 534 619 830 1033 1248 1425 1361 1168 976 677 371 80 0 0 0 0 0 0 0 0 0 0 0 0 0 0 0 0 0 0 0 0 0 0 0 0 0 0
97 101 360 368 370 339 634 984 1069 1176 1414 1342 1259 1011 705 289 10 0 0 0 0 0 0 0 0 0 0 0 0 0 0 0 0 0 0 0 0 0 0 0 0 0 0 0
1 20 37 0 106 498 866 1072 1112 1248 1266 1144 857 421 52 0 0 0 0 0 0 0 0 0 0 0 0 0 0 0 0 0 0 0 0 0 0 0 0 0 0 0 0 0
66 69 7 364 548 701 886 964 1080 1017 840 474 116 0 0 0 0 0 0 0 0 0 0 0 0 0 0 0 0 0 0 0 0 0 0 0 0 0 0 0 0 1 0 0
96 122 61 239 427 644 783 818 852 617 271 6 0 0 0 0 0 0 0 0 0 0 0 0 0 0 0 0 1 2 2 0 0 0 0 0 0 0 0 0 3 0 0 3
4 213 123 212 457 571 644 682 555 213 1 0 0 0 0 0 0 0 0 0 0 0 0 0 0 0 0 11 15 13 0 0 0 0 0 0 0 0 0 3 0 2 0 0
20 18 127 284 478 485 466 424 162 0 0 0 0 0 0 0 0 0 0 0 0 0 0 0 0 2 0 12 18 0 0 0 0 0 0 0 0 0 1 4 3 2 1 0
0 123 317 326 459 398 346 132 0 0 0 0 0 0 0 0 0 0 0 0 0 0 1 2 0 0 9 20 0 0 0 0 0 0 0 0 0 2 5 4 7 8 12 1
90 398 334 455 419 358 135 1 0 0 0 0 0 0 0 0 0 0 0 0 0 4 0 0 0 4 19 26 0 0 0 0 0 0 3 0 1 4 5 3 4 2 9 14
329 490 520 431 325 146 40 0 0 0 0 0 0 0 0 0 0 0 0 0 0 0 0 0 0 18 10 0 0 0 0 0 0 0 1 1 2 8 8 5 7 3 11 20
477 511 394 310 218 130 50 17 11 1 0 0 0 0 0 0 0 0 0 5 1 0 0 5 17 0 0 0 0 0 0 0 0 0 0 1 8 5 7 7 4 18 8 7
523 499 382 292 210 127 47 24 10 0 0 0 0 0 0 0 0 0 0 0 3 0 0 10 0 0 0 0 0 0 0 0 0 0 0 1 6 6 12 9 11 11 14 7
507 440 392 293 180 82 42 24 6 0 0 0 0 0 0 0 0 0 0 0 0 0 0 0 0 0 0 0 0 0 0 0 0 0 0 0 11 18 22 15 20 28 21 1
503 419 343 237 125 71 39 9 0 0 0 0 0 0 0 0 0 0 0 2 0 0 21 0 0 0 0 0 0 0 0 0 0 0 0 3 8 11 21 23 32 28 22 1
402 319 233 130 90 46 10 0 0 0 0 0 0 0 0 0 0 0 0 6 7 8 21 10 1 0 0 0 0 0 0 0 0 0 0 2 3 12 12 20 26 21 24 0
222 140 113 68 35 9 0 0 0 0 0 0 0 0 0 0 0 0 2 15 24 11 3 0 0 0 0 0 0 0 0 0 0 0 0 0 2 4 4 12 22 25 6 0
CIN
-12 -20 -7 -57 -12 -8 -4 -8 -16 -6 -0 -90 -21 -54 -90 -119 -123 -124 -128 -110 -120 -90 -64 -70 -65 -68 -56 -37 -37 -54 -26 -1 -1 -1 -9 -1 -6 -10 -18 -34 -61 -57 -109 -144
-11 -9 -5 -0 -4 -0 -8 -2 -5 -17 -16 -10 -10 -46 -84 -90 -105 -107 -119 -123 -119 -108 -71 -71 -54 -45 -39 -39 -41 -28 -22 -27 -29 -26 -31 -28 -30 -19 -12 -11 -27 -7 -3 -0
-9 -6 -6 -7 -7 -7 -4 -12 -4 -7 -7 -30 -35 -44 -61 -71 -94 -75 -82 -96 -99 -96 -66 -59 -43 -38 -68 -74 -69 -69 -51 -38 -57 -55 -84 -107 -124 -103 -94 -79 -52 -33 -25 -15
-12 -7 -7 -7 -17 -27 -9 -8 -5 -5 -7 -17 -22 -42 -62 -67 -73 -52 -69 -88 -80 -76 -81 -89 -71 -62 -66 -56 -62 -90 -106 -121 -154 -149 -0 -0 -0 -0 -0 -0 -0 -0 -0 -0
-6 -9 -12 -4 -13 -13 -5 -2 -6 -5 -8 -3 -19 -38 -52 -53 -55 -48 -59 -53 -44 -60 -58 -64 -66 -71 -73 -57 -77 -84 -150 -0 -1 -1 -0 -0 -0 -0 -0 -0 -0 -0 -0 -0
-11 -11 -21 -3 -6 -4 -4 -7 -6 -37 -4 -9 -20 -25 -24 -60 -48 -63 -55 -46 -55 -73 -87 -86 -85 -72 -63 -59 -70 -116 -1 -0 -0 -0 -0 -0 -0 -0 -0 -0 -0 -0 -0 -0
-6 -28 -9 -65 -50 -11 -3 -15 -60 -53 -7 -25 -24 -12 -54 -53 -59 -63 -68 -83 -108 -109 -90 -111 -122 -76 -56 -82 -147 -0 -0 -0 -0 -0 -0 -0 -0 -0 -0 -0 -0 -0 -0 -0
-10 -8 -26 -85 -30 -19 -26 -34 -31 -32 -28 -19 -18 -63 -78 -85 -97 -99 -120 -173 -121 -151 -200 -89 -91 -196 -228 -0 -0 -0 -0 -0 -0 -0 -0 -0 -0 -0 -0 -0 -0 -0 -0 -0
-37 -30 -23 -0 -40 -19 -17 -48 -36 -26 -28 -38 -61 -83 -114 -125 -145 -167 -179 -194 -187 -259 -0 -0 -0 -0 -0 -0 -0 -0 -0 -0 -0 -0 -0 -0 -0 -0 -0 -0 -0 -0 -0 -0
-37 -49 -5 -5 -42 -45 -28 -30 -48 -31 -44 -61 -57 -90 -117 -141 -166 -183 -222 -250 -0 -0 -0 -0 -0 -0 -0 -0 -0 -0 -0 -0 -0 -0 -0 -0 -0 -0 -0 -0 -0 -0 -0 -0
-70 -6 -35 -25 -51 -50 -49 -48 -50 -50 -51 -57 -72 -105 -124 -147 -174 -216 -262 -0 -0 -0 -0 -0 -0 -0 -0 -0 -0 -0 -0 -0 -0 -0 -0 -0 -0 -0 -0 -0 -0 -0 -0 -0
-19 -34 -31 -70 -58 -87 -62 -58 -64 -62 -62 -63 -73 -105 -117 -149 -183 -262 -0 -0 -0 -0 -0 -0 -0 -0 -0 -0 -0 -0 -0 -0 -0 -0 -0 -0 -0 -0 -0 -0 -0 -0 -0 -0
-56 -139 -75 -62 -71 -69 -57 -68 -69 -69 -74 -65 -73 -94 -119 -174 -206 -0 -0 -0 -0 -0 -0 -0 -0 -0 -0 -0 -0 -0 -0 -0 -0 -0 -0 -0 -0 -0 -0 -0 -0 -0 -0 -0
-59 -118 -96 -8 -61 -64 -65 -68 -88 -69 -69 -81 -107 -165 -195 -0 -0 -0 -0 -0 -0 -0 -0 -0 -0 -0 -0 -0 -0 -0 -0 -0 -0 -0 -0 -0 -0 -0 -0 -0 -0 -0 -0 -0
-19 -40 -55 -35 -65 -68 -82 -100 -73 -99 -114 -159 -184 -0 -0 -0 -0 -0 -0 -0 -0 -0 -0 -0 -0 -0 -0 -0 -0 -0 -0 -0 -0 -0 -0 -0 -0 -0 -0 -0 -0 -1 -2 -1
-17 -43 -76 -52 -82 -79 -86 -87 -88 -126 -179 -56 -0 -0 -0 -0 -0 -0 -0 -0 -0 -0 -0 -0 -0 -0 -0 -0 -1 -2 -2 -0 -0 -0 -0 -0 -0 -0 -0 -2 -2 -1 -11 -2
-66 -49 -76 -73 -63 -85 -71 -64 -76 -147 -66 -0 -0 -0 -0 -0 -0 -0 -0 -0 -0 -0 -0 -0 -0 -0 -0 -2 -1 -1 -0 -0 -0 -0 -0 -0 -0 -0 -0 -2 -0 -6 -1 -0
-119 -130 -89 -57 -58 -71 -64 -61 -127 -0 -0 -0 -0 -0 -0 -0 -0 -0 -0 -0 -0 -0 -0 -0 -0 -1 -0 -2 -2 -0 -0 -0 -0 -0 -0 -0 -0 -0 -2 -1 -1 -1 -0 -0
-0 -87 -34 -29 -40 -49 -51 -90 -0 -0 -0 -0 -0 -0 -0 -0 -0 -0 -0 -0 -0 -0 -2 -1 -0 -0 -13 -13 -0 -0 -0 -0 -0 -0 -0 -0 -2 -1 -1 -1 -1 -1 -2 -1
-82 -35 -34 -32 -43 -53 -70 -7 -0 -0 -0 -0 -0 -0 -0 -0 -0 -0 -0 -0 -0 -6 -0 -0 -0 -3 -4 -8 -0 -0 -0 -0 -0 -0 -2 -1 -1 -2 -1 -2 -4 -2 -2 -2
-34 -27 -35 -54 -55 -59 -82 -12 -0 -0 -0 -0 -0 -0 -0 -0 -0 -0 -0 -0 -0 -0 -0 -0 -0 -3 -3 -0 -0 -0 -0 -0 -0 -3 -2 -1 -2 -1 -1 -1 -3 -3 -4 -2
-25 -31 -37 -41 -51 -83 -90 -120 -139 -85 -0 -0 -0 -0 -0 -0 -0 -0 -0 -3 -1 -0 -0 -3 -5 -7 -0 -0 -0 -0 -0 -0 -0 -0 -0 -2 -2 -2 -1 -1 -4 -3 -10 -9
-32 -33 -35 -46 -69 -76 -110 -115 -148 -0 -0 -0 -0 -0 -0 -0 -0 -0 -0 -0 -1 -0 -0 -5 -0 -0 -0 -0 -0 -0 -0 -0 -0 -0 -0 -1 -2 -2 -3 -2 -7 -3 -4 -14
-50 -50 -61 -58 -71 -102 -101 -125 -133 -0 -0 -0 -0 -0 -0 -0 -0 -0 -0 -0 -0 -0 -0 -0 -0 -0 -0 -0 -0 -0 -0 -0 -0 -0 -0 -0 -3 -4 -2 -1 -4 -2 -2 -28
-70 -79 -86 -80 -104 -102 -112 -128 -0 -0 -0 -0 -0 -0 -0 -0 -0 -0 -0 -1 -0 -0 -2 -0 -0 -0 -0 -1 -0 -0 -0 -0 -0 -0 -0 -2 -3 -3 -2 -3 -2 -1 -4 -6
-83 -76 -80 -105 -64 -94 -112 -0 -0 -0 -0 -0 -0 -0 -0 -0 -0 -0 -0 -1 -2 -1 -2 -16 -5 -0 -0 -0 -0 -0 -0 -0 -0 -1 -0 -2 -3 -2 -1 -2 -2 -1 -3 -0
-68 -76 -92 -53 -78 -90 -0 -0 -0 -0 -0 -0 -0 -0 -0 -0 -0 -0 -3 -4 -2 -3 -1 -0 -0 -0 -0 -0 -0 -0 -0 -0 -0 -0 -0 -0 -2 -2 -2 -2 -2 -1 -10 -0
Wind_Speed
29 13 12 10 29 22 19 31 28 8 12 12 6 6 7 7 8 8 9 11 13 13 14 12 12 13 14 15 16 14 16 18 19 16 16 19 20 20 19 17 16 16 19 18
37 21 17 27 22 26 13 27 28 28 30 12 10 9 6 6 7 8 9 11 12 13 13 12 11 12 14 17 15 14 15 18 18 18 17 19 19 19 19 18 18 19 19 20
39 34 21 21 32 17 16 19 22 26 19 16 11 8 5 6 7 7 9 11 12 13 13 13 12 13 16 16 15 15 16 17 18 18 19 20 20 20 19 20 20 21 22 24
30 20 19 31 22 23 17 16 20 21 17 15 9 6 5 6 6 7 8 10 11 12 13 13 13 14 15 16 16 16 17 18 19 20 20 21 20 21 21 22 23 24 26 27
16 19 31 19 15 22 20 21 22 12 11 10 7 7 6 6 6 6 7 9 10 12 13 13 14 13 14 15 16 16 17 18 20 20 21 21 22 22 24 26 26 27 27 28
27 29 33 15 9 8 14 15 8 11 9 8 5 6 3 4 6 6 7 8 10 11 11 12 13 13 14 15 16 18 19 19 21 21 22 22 23 24 25 25 25 26 27 27
40 28 38 17 16 18 11 12 9 10 8 7 5 14 8 7 7 7 8 8 10 10 12 14 14 15 16 17 19 19 20 20 22 23 23 23 25 25 26 26 27 26 27 28
40 26 32 18 10 15 11 8 8 10 9 9 9 9 6 6 6 7 7 8 9 11 13 15 16 16 17 19 19 20 21 22 23 24 24 25 26 27 28 27 28 29 28 30
23 20 10 14 23 8 6 7 9 10 10 10 8 8 7 6 6 7 7 8 9 11 13 16 18 19 19 20 21 21 22 23 23 24 25 27 28 29 28 28 30 31 32 34
21 16 5 5 9 12 12 6 9 10 10 8 7 7 7 7 7 7 8 9 11 12 15 17 19 21 20 20 20 21 22 23 23 25 25 27 27 28 29 30 32 32 34 37
28 20 21 13 13 9 9 8 9 9 8 7 7 7 7 7 7 8 9 11 12 14 16 18 20 20 20 19 20 22 22 24 25 25 25 29 27 28 30 30 30 34 37 38
28 19 19 13 12 9 8 8 8 8 7 7 7 7 7 7 8 9 10 12 14 15 17 18 18 18 19 20 21 23 24 24 26 27 27 29 30 32 28 25 26 26 27 30
23 22 19 18 13 13 8 7 7 6 5 6 7 7 7 8 9 10 12 13 14 16 17 16 16 17 18 19 20 22 23 24 26 28 28 28 30 33 35 35 30 28 29 30
23 17 17 17 17 13 9 7 6 5 5 6 6 7 7 8 9 11 13 14 15 15 15 15 16 17 18 19 20 22 23 23 22 27 30 31 32 34 35 36 40 40 36 35
25 25 23 15 13 12 8 6 4 3 3 4 6 7 7 8 10 12 14 15 14 14 15 15 16 18 18 19 20 22 21 23 26 30 29 29 30 32 36 38 40 41 43 46
28 25 21 14 13 10 8 5 4 3 2 3 5 6 8 10 12 13 14 13 13 14 15 15 16 16 17 19 21 22 24 23 23 27 29 29 33 36 36 39 41 43 44 43
30 20 18 14 9 6 3 0 2 3 2 3 5 7 9 11 12 13 13 13 14 14 14 15 15 16 18 18 21 22 27 25 25 26 31 33 33 35 39 40 39 38 39 39
21 19 15 9 4 3 2 1 1 0 1 3 5 7 9 11 12 12 12 12 13 13 13 14 14 17 20 18 22 25 23 25 27 29 30 32 36 37 35 33 35 35 37 39
22 20 12 5 3 3 1 0 2 3 3 4 5 8 10 11 12 11 11 12 13 13 12 13 14 17 16 20 23 26 23 27 27 29 29 33 33 32 31 32 34 35 36 39
12 12 7 3 2 2 3 4 4 3 3 4 6 9 10 11 11 11 10 11 12 18 15 16 18 18 19 20 22 23 25 27 28 28 29 31 30 31 31 32 34 35 39 39
7 5 0 2 3 5 6 6 5 4 4 5 7 9 10 10 10 10 10 10 12 14 13 14 15 19 23 23 26 24 26 26 26 26 28 28 28 30 31 33 34 33 38 45
2 1 2 4 7 7 7 6 5 5 5 6 8 8 9 10 9 8 10 16 12 13 13 15 16 18 23 23 21 24 23 24 24 24 25 26 28 32 32 33 32 32 36 42
2 1 4 6 6 6 6 5 5 5 6 7 7 8 8 9 8 9 10 9 12 13 15 19 19 19 19 20 20 21 21 21 22 24 25 27 29 29 28 36 31 16 40 45
1 4 4 5 5 5 4 4 4 5 7 8 8 8 8 9 8 9 15 13 14 14 15 18 18 18 18 17 19 20 20 19 20 22 24 26 27 30 32 32 15 15 42 44
1 2 4 5 5 4 3 4 5 6 7 7 8 7 8 9 10 10 12 14 14 16 19 16 18 17 16 14 18 18 18 19 19 21 21 21 24 27 29 26 13 40 21 38
1 3 3 5 3 3 4 4 5 6 6 7 7 7 7 9 11 12 12 15 14 16 17 17 17 15 18 18 19 18 18 19 19 20 20 19 21 19 23 25 26 29 29 42
0 1 3 2 2 3 4 4 5 5 6 7 7 8 8 9 9 10 13 11 14 16 20 23 22 20 20 20 18 18 20 21 21 20 19 18 21 22 15 18 20 18 36 39
Wind_Direction
243 289 283 283 223 272 284 254 271 353 174 177 50 47 35 50 45 40 41 32 16 18 17 25 28 24 13 12 5 15 11 5 4 17 20 11 13 14 12 9 6 354 336 336
225 265 278 260 280 261 302 271 279 292 295 353 6 16 26 56 42 39 42 33 31 24 22 21 23 20 13 1 5 13 10 6 6 8 10 8 8 9 8 4 353 342 335 331
233 235 278 269 241 272 294 292 299 291 321 337 353 11 48 72 59 44 50 40 34 26 19 23 30 14 3 7 9 7 5 3 3 1 360 359 358 358 355 350 345 340 334 325
255 264 264 233 204 290 264 295 304 313 329 337 356 49 43 36 36 55 42 34 35 30 27 30 26 16 14 11 7 3 359 355 354 354 351 350 350 348 347 342 338 334 329 326
255 263 241 211 284 272 280 303 305 328 349 1 26 32 13 20 25 45 38 30 25 26 28 24 21 18 11 6 2 358 353 352 351 350 347 345 343 341 337 334 332 331 329 326
258 262 261 213 204 287 301 308 325 335 356 359 11 344 331 16 41 43 41 40 27 28 22 17 13 11 4 357 353 347 346 345 345 344 342 341 340 338 337 338 337 335 333 331
242 265 241 279 294 168 313 320 344 347 14 13 347 339 59 81 51 58 49 33 26 17 7 4 1 356 352 350 345 345 344 343 341 339 338 338 336 336 334 334 333 332 330 329
239 256 255 291 289 297 326 360 360 2 11 7 9 1 28 45 57 43 34 28 22 13 8 3 358 354 348 344 344 342 339 337 336 337 336 335 333 332 331 331 329 328 327 327
264 291 297 257 227 325 347 346 359 6 9 19 358 353 20 33 41 40 36 23 14 7 1 356 353 349 343 341 340 339 338 337 337 336 334 333 331 330 330 330 328 327 325 322
273 272 270 76 317 303 311 359 6 8 35 49 21 17 17 29 42 42 29 14 4 357 351 349 349 346 344 343 342 340 338 337 337 335 334 333 332 330 328 328 326 326 324 321
264 284 285 302 309 313 316 334 344 6 27 42 36 14 7 16 27 31 18 3 359 354 350 347 347 347 349 349 346 342 340 337 335 334 333 330 332 330 328 328 328 324 323 322
273 279 286 295 300 319 322 326 337 349 7 20 33 34 33 21 19 15 5 2 356 352 351 349 350 352 352 351 348 344 341 340 337 335 334 333 331 329 333 333 332 331 328 326
282 275 291 287 297 299 315 328 336 350 11 27 36 39 29 24 17 10 5 360 356 354 354 357 358 357 357 355 353 349 345 343 340 337 336 336 333 331 328 329 333 332 331 330
274 283 277 284 293 301 311 328 340 2 18 35 40 37 30 20 19 7 1 0 359 0 3 4 2 360 360 358 354 350 347 345 345 340 336 334 333 331 330 329 327 328 332 333
245 259 276 296 301 303 308 316 316 339 14 36 34 28 21 17 6 2 3 4 6 8 6 4 4 2 3 2 359 356 354 350 345 340 339 338 336 335 333 331 330 329 329 327
263 274 283 294 298 298 297 295 289 299 345 19 23 17 15 9 5 5 6 9 7 5 7 7 6 9 10 7 0 356 353 350 349 346 342 341 338 336 336 335 333 332 331 332
265 283 289 295 294 301 300 261 293 302 357 14 15 18 14 7 6 7 7 9 8 10 11 12 11 12 8 6 2 360 354 353 352 349 344 342 342 340 337 336 337 339 339 340
279 287 294 300 300 305 302 293 316 55 28 34 28 18 9 4 4 6 11 13 12 14 15 17 16 8 4 6 1 358 356 354 352 349 347 346 343 341 343 346 346 345 344 344
277 284 297 304 305 303 257 78 102 94 70 45 25 8 4 6 8 13 17 17 16 13 18 22 16 4 3 3 0 357 358 354 353 352 351 348 349 351 351 351 348 347 347 346
279 292 299 318 345 108 110 105 106 85 66 37 12 6 6 9 15 22 24 21 21 11 22 15 7 4 1 1 2 359 357 356 355 354 354 355 356 355 354 352 351 349 346 344
277 287 322 74 91 105 109 110 102 85 55 29 15 10 12 19 26 29 25 22 21 18 17 14 11 7 5 2 358 1 359 0 1 1 0 1 1 358 356 353 353 353 349 325
266 142 120 108 114 111 108 105 91 76 58 33 18 19 22 22 30 37 30 12 33 26 20 14 17 10 2 2 3 3 5 6 8 7 7 6 3 358 357 357 356 357 317 341
285 187 135 131 127 114 105 95 80 65 34 17 19 20 22 28 41 39 36 41 28 27 17 10 11 6 6 6 6 6 8 9 9 8 8 5 2 1 0 355 359 314 320 338
128 133 136 132 124 120 112 79 60 29 16 16 18 27 33 38 42 39 31 37 23 20 15 11 11 12 10 9 11 10 10 10 8 6 5 3 3 1 358 360 356 359 327 347
180 132 133 132 129 123 97 76 37 24 25 22 25 32 37 42 31 33 33 34 23 19 15 22 18 18 20 21 14 14 13 10 8 5 5 6 5 3 3 7 337 326 308 359
173 133 127 127 116 103 92 79 29 29 40 27 34 46 55 35 19 23 29 21 23 25 25 25 23 25 18 19 16 18 15 12 10 8 7 8 8 11 357 301 305 310 322 348
357 97 117 100 58 80 65 46 33 42 44 43 47 57 51 41 33 33 25 39 36 29 22 18 20 25 23 22 27 25 21 17 16 15 15 16 14 14 293 298 304 307 7 336